FW6550 Weather Reports


Display with metric or nautical units.
time (UTC)temp
F
wind
direction
speed
MPH
gust
MPH
rain 1hr
in
rain 24hr
in
rain mn
in
humidity
%
barometer
mb
20260506044547 72 234 1.0 5.0 0.00 0.00 0.00 70 1012.4
20260506043031 72 0 1.0 4.0 0.00 0.00 0.00 69 1012.2
20260506041944 73 197 0.0 5.0 0.00 0.00 0.00 69 1012.0
20260506040032 73 0 1.0 6.0 0.00 0.00 0.00 69 1012.1
20260506034530 73 0 0.0 2.0 0.00 0.00 0.00 70 1012.3
20260506033034 73 0 0.0 3.0 0.00 0.00 0.00 69 1012.3
20260506031544 73 197 0.0 6.0 0.00 0.00 0.00 69 1012.2
20260506030032 73 47 1.0 7.0 0.00 0.00 0.00 69 1012.2
20260506024536 73 135 0.0 4.0 0.00 0.00 0.00 69 1011.7
20260506023035 73 0 0.0 4.0 0.00 0.00 0.00 69 1011.7
20260506021534 73 0 0.0 2.0 0.00 0.00 0.00 69 1011.5
20260506020035 74 0 0.0 2.0 0.00 0.00 0.00 69 1011.8
20260506014534 74 0 0.0 2.0 0.00 0.00 0.00 69 1011.6
20260506013041 74 0 0.0 0.0 0.00 0.00 0.00 69 1011.6
20260506011541 74 0 0.0 0.0 0.00 0.00 0.00 67 1011.4
20260506010053 75 0 0.0 1.0 0.00 0.00 0.00 66 1011.8
20260506004534 75 0 0.0 2.0 0.00 0.00 0.00 65 1011.7
20260506003034 76 0 0.0 2.0 0.00 0.00 0.00 64 1011.7
20260506001531 76 0 0.0 2.0 0.00 0.00 0.00 63 1011.7
20260506000037 77 0 0.0 1.0 0.00 0.00 0.00 61 1011.5
20260505234536 78 238 0.0 3.0 0.00 0.00 0.00 60 1011.6
20260505233034 78 159 0.0 2.0 0.00 0.00 0.00 60 1011.7
20260505231532 79 0 0.0 3.0 0.00 0.00 0.00 59 1012.1
20260505230040 79 0 0.0 4.0 0.00 0.00 0.00 60 1012.0
20260505224543 79 219 0.0 3.0 0.00 0.00 0.00 59 1012.2
20260505223036 79 0 1.0 4.0 0.00 0.00 0.00 57 1012.2
20260505221534 79 0 0.0 4.0 0.00 0.00 0.00 58 1012.2
20260505220035 80 0 1.0 4.0 0.00 0.00 0.00 57 1012.4
20260505214534 80 0 0.0 5.0 0.00 0.00 0.00 56 1012.2
20260505213031 80 76 0.0 3.0 0.00 0.00 0.00 59 1012.3
20260505211536 80 160 0.0 4.0 0.00 0.00 0.00 57 1012.5
20260505210034 80 230 1.0 4.0 0.00 0.00 0.00 56 1012.7
20260505204531 80 196 0.0 2.0 0.00 0.00 0.00 57 1012.5
20260505203037 80 0 0.0 3.0 0.00 0.00 0.00 56 1012.8
20260505201542 80 0 1.0 7.0 0.00 0.00 0.00 55 1012.7
20260505200037 81 176 1.0 6.0 0.00 0.00 0.00 54 1012.9
20260505194536 81 350 1.0 4.0 0.00 0.00 0.00 55 1012.9
20260505193032 81 224 1.0 4.0 0.00 0.00 0.00 55 1013.0
20260505191534 81 0 0.0 5.0 0.00 0.00 0.00 53 1013.3
20260505190037 80 47 1.0 6.0 0.00 0.00 0.00 57 1013.3
20260505184534 80 64 0.0 5.0 0.00 0.00 0.00 55 1013.8
20260505183055 81 0 2.0 8.0 0.00 0.00 0.00 56 1014.1
20260505181535 80 267 1.0 7.0 0.00 0.00 0.00 59 1014.2
20260505180037 80 0 0.0 4.0 0.00 0.00 0.00 56 1014.3
20260505174536 80 213 3.0 8.0 0.00 0.00 0.00 55 1014.5
20260505173041 81 0 1.0 4.0 0.00 0.00 0.00 57 1014.5
20260505171543 79 0 0.0 9.0 0.00 0.00 0.00 61 1014.7
20260505170033 78 264 3.0 9.0 0.00 0.00 0.00 58 1015.0
20260505164535 78 0 0.0 8.0 0.00 0.00 0.00 59 1014.7
20260505163035 78 298 1.0 6.0 0.00 0.00 0.00 57 1014.8
20260505161532 78 265 1.0 5.0 0.00 0.00 0.00 61 1014.7
20260505153032 77 0 2.0 8.0 0.00 0.00 0.00 60 1015.2
20260505151536 76 0 0.0 4.0 0.00 0.00 0.00 65 1015.1
20260505124532 60 0 0.0 3.0 0.00 0.00 0.00 79 1014.5
20260505123032 58 0 0.0 1.0 0.00 0.00 0.00 76 1014.4
20260505121538 57 0 0.0 1.0 0.00 0.00 0.00 70 1014.0
20260505120057 56 0 0.0 0.0 0.00 0.00 0.00 69 1013.8
20260505114531 55 0 0.0 0.0 0.00 0.00 0.00 70 1013.7
20260505113037 55 0 0.0 0.0 0.00 0.00 0.00 74 1013.4
20260505111532 55 0 0.0 0.0 0.00 0.00 0.00 76 1013.4
20260505101534 56 0 0.0 0.0 0.00 0.00 0.00 79 1013.4
20260505100035 56 0 0.0 0.0 0.00 0.00 0.00 79 1013.2
20260505094532 56 0 0.0 1.0 0.00 0.00 0.00 78 1013.3
20260505093041 56 0 0.0 0.0 0.00 0.00 0.00 80 1013.5
20260505091535 57 0 0.0 0.0 0.00 0.00 0.00 80 1013.7
20260505090041 57 0 0.0 0.0 0.00 0.00 0.00 80 1013.8
20260505084533 58 0 0.0 0.0 0.00 0.00 0.00 80 1013.7
20260505083034 58 0 0.0 0.0 0.00 0.00 0.00 80 1013.7
20260505081539 59 0 0.0 0.0 0.00 0.00 0.00 79 1013.8
20260505080037 59 0 0.0 0.0 0.00 0.00 0.00 78 1013.6
20260505074535 60 0 0.0 0.0 0.00 0.00 0.00 77 1013.8
20260505073051 60 0 0.0 0.0 0.00 0.00 0.00 77 1014.1
20260505071534 61 0 0.0 1.0 0.00 0.00 0.00 76 1014.1
20260505070032 61 0 0.0 3.0 0.00 0.00 0.00 75 1014.2
20260505064540 62 0 0.0 4.0 0.00 0.00 0.00 74 1014.3
20260505063034 62 149 0.0 3.0 0.00 0.00 0.00 73 1014.3
20260505061547 63 64 0.0 3.0 0.00 0.00 0.00 72 1014.2
20260505060036 63 0 0.0 3.0 0.00 0.00 0.00 71 1014.4
20260505054557 64 0 1.0 4.0 0.00 0.00 0.00 69 1014.5
20260505053034 64 226 0.0 3.0 0.00 0.00 0.00 68 1014.4
20260505051535 64 276 1.0 4.0 0.00 0.00 0.00 68 1014.1